| time (UTC) | temp F | wind direction | speed knots | gust knots | rain 1hr in | rain 24hr in | rain mn in | humidity % | barometer mb |
| 20260507093405 | 59 | 35 | 1.7 | 2.6 | 0.00 | 0.00 | 0.00 | 55 | 1002.1 |
| 20260507093204 | 60 | 9 | 1.7 | 2.6 | 0.00 | 0.00 | 0.00 | 54 | 1002.2 |
| 20260507092804 | 60 | 330 | 0.9 | 2.6 | 0.00 | 0.00 | 0.00 | 55 | 1002.2 |
| 20260507092605 | 60 | 330 | 0.9 | 2.6 | 0.00 | 0.00 | 0.00 | 56 | 1002.3 |
| 20260507092405 | 61 | 165 | 0.0 | 1.7 | 0.00 | 0.00 | 0.00 | 59 | 1002.3 |
| 20260507092205 | 61 | 181 | 0.9 | 2.6 | 0.00 | 0.00 | 0.00 | 60 | 1002.2 |
| 20260507092005 | 61 | 186 | 0.9 | 2.6 | 0.00 | 0.00 | 0.00 | 60 | 1002.3 |
| 20260507091804 | 61 | 184 | 0.9 | 2.6 | 0.00 | 0.00 | 0.00 | 60 | 1002.3 |
| 20260507091605 | 60 | 174 | 0.9 | 2.6 | 0.00 | 0.00 | 0.00 | 61 | 1002.3 |
| 20260507091405 | 60 | 161 | 1.7 | 2.6 | 0.00 | 0.00 | 0.00 | 61 | 1002.3 |
| 20260507091204 | 60 | 121 | 1.7 | 2.6 | 0.00 | 0.00 | 0.00 | 60 | 1002.1 |
| 20260507091005 | 59 | 101 | 1.7 | 2.6 | 0.00 | 0.00 | 0.00 | 60 | 1002.1 |
| 20260507090605 | 59 | 73 | 1.7 | 2.6 | 0.00 | 0.00 | 0.00 | 58 | 1002.1 |
| 20260507090404 | 59 | 78 | 1.7 | 2.6 | 0.00 | 0.00 | 0.00 | 59 | 1002.3 |
| 20260507090205 | 59 | 79 | 1.7 | 2.6 | 0.00 | 0.00 | 0.00 | 58 | 1002.3 |
| 20260507090005 | 59 | 76 | 1.7 | 2.6 | 0.00 | 0.00 | 0.00 | 59 | 1002.1 |
| 20260507085804 | 60 | 81 | 0.9 | 2.6 | 0.00 | 0.00 | 0.00 | 60 | 1002.3 |
| 20260507085605 | 60 | 100 | 0.9 | 2.6 | 0.00 | 0.00 | 0.00 | 60 | 1002.2 |
| 20260507085405 | 60 | 23 | 0.9 | 2.6 | 0.00 | 0.00 | 0.00 | 60 | 1002.3 |
| 20260507085205 | 61 | 221 | 0.9 | 2.6 | 0.00 | 0.00 | 0.00 | 61 | 1002.1 |
| 20260507085004 | 60 | 235 | 0.9 | 1.7 | 0.00 | 0.00 | 0.00 | 63 | 1002.2 |
| 20260507084804 | 60 | 229 | 0.9 | 1.7 | 0.00 | 0.00 | 0.00 | 63 | 1002.1 |
| 20260507084605 | 60 | 219 | 0.9 | 1.7 | 0.00 | 0.00 | 0.00 | 65 | 1002.1 |
| 20260507084405 | 60 | 215 | 0.9 | 1.7 | 0.00 | 0.00 | 0.00 | 66 | 1002.0 |
| 20260507084205 | 60 | 212 | 0.9 | 1.7 | 0.00 | 0.00 | 0.00 | 68 | 1002.1 |
| 20260507084005 | 59 | 191 | 0.9 | 1.7 | 0.00 | 0.00 | 0.00 | 70 | 1001.9 |
| 20260507083805 | 59 | 192 | 0.9 | 1.7 | 0.00 | 0.00 | 0.00 | 71 | 1002.0 |
| 20260507083404 | 58 | 192 | 0.9 | 1.7 | 0.00 | 0.00 | 0.00 | 71 | 1001.8 |
| 20260507083205 | 57 | 194 | 0.9 | 1.7 | 0.00 | 0.00 | 0.00 | 71 | 1002.0 |
| 20260507083005 | 57 | 206 | 0.9 | 1.7 | 0.00 | 0.00 | 0.00 | 71 | 1001.8 |
| 20260507082805 | 56 | 214 | 0.0 | 1.7 | 0.00 | 0.00 | 0.00 | 71 | 1001.9 |
| 20260507082605 | 56 | 204 | 0.0 | 1.7 | 0.00 | 0.00 | 0.00 | 70 | 1001.9 |
| 20260507082404 | 55 | 190 | 0.9 | 1.7 | 0.00 | 0.00 | 0.00 | 70 | 1001.9 |
| 20260507082205 | 55 | 205 | 0.9 | 1.7 | 0.00 | 0.00 | 0.00 | 69 | 1001.8 |
| 20260507081804 | 55 | 206 | 0.9 | 1.7 | 0.00 | 0.00 | 0.00 | 69 | 1001.9 |
| 20260507081605 | 55 | 208 | 0.9 | 1.7 | 0.00 | 0.00 | 0.00 | 70 | 1001.8 |
| 20260507081405 | 55 | 236 | 0.9 | 1.7 | 0.00 | 0.00 | 0.00 | 70 | 1001.9 |
| 20260507081205 | 55 | 209 | 0.9 | 1.7 | 0.00 | 0.00 | 0.00 | 70 | 1001.9 |
| 20260507080804 | 55 | 198 | 0.9 | 1.7 | 0.00 | 0.00 | 0.00 | 70 | 1001.8 |
| 20260507080605 | 55 | 199 | 0.9 | 1.7 | 0.00 | 0.00 | 0.00 | 70 | 1001.8 |
| 20260507080204 | 55 | 181 | 0.0 | 1.7 | 0.00 | 0.00 | 0.00 | 70 | 1001.8 |
| 20260507080005 | 55 | 181 | 0.0 | 0.9 | 0.00 | 0.00 | 0.00 | 71 | 1001.8 |
| 20260507075805 | 55 | 181 | 0.0 | 1.7 | 0.00 | 0.00 | 0.00 | 71 | 1001.8 |
| 20260507075605 | 55 | 166 | 0.9 | 1.7 | 0.00 | 0.00 | 0.00 | 71 | 1001.7 |
| 20260507075405 | 54 | 166 | 0.9 | 1.7 | 0.00 | 0.00 | 0.00 | 72 | 1001.8 |
| 20260507075205 | 54 | 166 | 0.9 | 1.7 | 0.00 | 0.00 | 0.00 | 75 | 1001.8 |
| 20260507075005 | 54 | 165 | 0.9 | 1.7 | 0.00 | 0.00 | 0.00 | 75 | 1001.7 |
| 20260507074804 | 54 | 189 | 0.9 | 1.7 | 0.00 | 0.00 | 0.00 | 75 | 1001.8 |
| 20260507074605 | 54 | 210 | 0.9 | 1.7 | 0.00 | 0.00 | 0.00 | 75 | 1001.8 |
| 20260507074205 | 53 | 211 | 0.9 | 1.7 | 0.00 | 0.00 | 0.00 | 75 | 1001.7 |
| 20260507073805 | 53 | 3 | 0.9 | 1.7 | 0.00 | 0.00 | 0.00 | 75 | 1001.8 |
| 20260507073605 | 53 | 3 | 0.9 | 1.7 | 0.00 | 0.00 | 0.00 | 75 | 1001.7 |
| 20260507073404 | 52 | 15 | 0.9 | 1.7 | 0.00 | 0.00 | 0.00 | 75 | 1001.9 |
| 20260507073204 | 52 | 53 | 0.9 | 1.7 | 0.00 | 0.00 | 0.00 | 75 | 1001.8 |
| 20260507073005 | 52 | 164 | 0.9 | 1.7 | 0.00 | 0.00 | 0.00 | 75 | 1001.8 |
| 20260507072805 | 52 | 172 | 0.9 | 1.7 | 0.00 | 0.00 | 0.00 | 76 | 1001.6 |
| 20260507072605 | 52 | 172 | 0.9 | 1.7 | 0.00 | 0.00 | 0.00 | 75 | 1001.7 |
| 20260507072405 | 52 | 141 | 0.9 | 1.7 | 0.00 | 0.00 | 0.00 | 75 | 1001.7 |
| 20260507072204 | 52 | 112 | 0.9 | 1.7 | 0.00 | 0.00 | 0.00 | 75 | 1001.7 |
| 20260507072005 | 51 | 69 | 0.9 | 1.7 | 0.00 | 0.00 | 0.00 | 75 | 1001.8 |
| 20260507071605 | 51 | 52 | 1.7 | 2.6 | 0.00 | 0.00 | 0.00 | 75 | 1001.6 |
| 20260507071404 | 51 | 40 | 1.7 | 2.6 | 0.00 | 0.00 | 0.00 | 75 | 1001.6 |
| 20260507071205 | 51 | 45 | 1.7 | 2.6 | 0.00 | 0.00 | 0.00 | 75 | 1001.6 |
| 20260507071005 | 51 | 40 | 1.7 | 2.6 | 0.00 | 0.00 | 0.00 | 76 | 1001.7 |
| 20260507070805 | 51 | 227 | 1.7 | 2.6 | 0.00 | 0.00 | 0.00 | 76 | 1001.6 |
| 20260507070009 | 51 | 181 | 0.9 | 2.6 | 0.00 | 0.00 | 0.00 | 78 | 1001.6 |
| 20260507065805 | 51 | 185 | 0.9 | 2.6 | 0.00 | 0.00 | 0.00 | 78 | 1001.6 |
| 20260507065605 | 51 | 179 | 0.9 | 1.7 | 0.00 | 0.00 | 0.00 | 78 | 1001.6 |
| 20260507065405 | 51 | 171 | 0.9 | 1.7 | 0.00 | 0.00 | 0.00 | 78 | 1001.6 |
| 20260507065004 | 50 | 116 | 0.9 | 1.7 | 0.00 | 0.00 | 0.00 | 79 | 1001.6 |
| 20260507064805 | 50 | 134 | 1.7 | 1.7 | 0.00 | 0.00 | 0.00 | 79 | 1001.6 |
| 20260507064605 | 50 | 150 | 1.7 | 1.7 | 0.00 | 0.00 | 0.00 | 79 | 1001.5 |
| 20260507064405 | 50 | 162 | 1.7 | 1.7 | 0.00 | 0.00 | 0.00 | 79 | 1001.6 |
| 20260507064204 | 50 | 165 | 0.9 | 1.7 | 0.00 | 0.00 | 0.00 | 79 | 1001.8 |
| 20260507064005 | 50 | 181 | 0.9 | 1.7 | 0.00 | 0.00 | 0.00 | 80 | 1001.6 |
| 20260507063805 | 49 | 198 | 0.9 | 1.7 | 0.00 | 0.00 | 0.00 | 80 | 1001.7 |
| 20260507063604 | 49 | 162 | 1.7 | 3.5 | 0.00 | 0.00 | 0.00 | 79 | 1001.6 |
| 20260507063405 | 49 | 103 | 1.7 | 3.5 | 0.00 | 0.00 | 0.00 | 79 | 1001.7 |
| 20260507063205 | 49 | 52 | 1.7 | 3.5 | 0.00 | 0.00 | 0.00 | 79 | 1001.6 |
| 20260507062605 | 49 | 112 | 0.9 | 1.7 | 0.00 | 0.00 | 0.00 | 80 | 1001.5 |
| 20260507062404 | 49 | 137 | 0.9 | 1.7 | 0.00 | 0.00 | 0.00 | 80 | 1001.6 |
| 20260507062204 | 49 | 149 | 0.9 | 1.7 | 0.00 | 0.00 | 0.00 | 80 | 1001.5 |
| 20260507062005 | 49 | 134 | 0.9 | 1.7 | 0.00 | 0.00 | 0.00 | 80 | 1001.5 |
| 20260507061805 | 49 | 178 | 0.9 | 1.7 | 0.00 | 0.00 | 0.00 | 80 | 1001.5 |
| 20260507061604 | 49 | 173 | 0.9 | 1.7 | 0.00 | 0.00 | 0.00 | 80 | 1001.5 |
| 20260507061405 | 48 | 164 | 0.9 | 1.7 | 0.00 | 0.00 | 0.00 | 80 | 1001.5 |
| 20260507061205 | 48 | 173 | 0.9 | 1.7 | 0.00 | 0.00 | 0.00 | 80 | 1001.5 |
| 20260507061005 | 48 | 119 | 0.9 | 1.7 | 0.00 | 0.00 | 0.00 | 80 | 1001.4 |
| 20260507060804 | 48 | 76 | 1.7 | 1.7 | 0.00 | 0.00 | 0.00 | 80 | 1001.4 |
| 20260507060604 | 48 | 60 | 0.9 | 1.7 | 0.00 | 0.00 | 0.00 | 80 | 1001.3 |
| 20260507060205 | 48 | 44 | 1.7 | 2.6 | 0.00 | 0.00 | 0.00 | 80 | 1001.4 |
| 20260507055805 | 48 | 62 | 1.7 | 2.6 | 0.00 | 0.00 | 0.00 | 80 | 1001.4 |
| 20260507055605 | 48 | 58 | 1.7 | 2.6 | 0.00 | 0.00 | 0.00 | 80 | 1001.4 |
| 20260507055205 | 48 | 81 | 1.7 | 1.7 | 0.00 | 0.00 | 0.00 | 80 | 1001.3 |
| 20260507055005 | 48 | 87 | 1.7 | 1.7 | 0.00 | 0.00 | 0.00 | 80 | 1001.3 |
| 20260507054804 | 48 | 80 | 0.9 | 1.7 | 0.00 | 0.00 | 0.00 | 80 | 1001.4 |
| 20260507054605 | 48 | 84 | 0.9 | 1.7 | 0.00 | 0.00 | 0.00 | 80 | 1001.4 |
| 20260507054205 | 48 | 103 | 0.9 | 1.7 | 0.00 | 0.00 | 0.00 | 80 | 1001.3 |
| 20260507053804 | 48 | 124 | 0.0 | 1.7 | 0.00 | 0.00 | 0.00 | 80 | 1001.2 |
| 20260507053605 | 48 | 109 | 0.0 | 1.7 | 0.00 | 0.00 | 0.00 | 80 | 1001.3 |
| 20260507053405 | 47 | 109 | 0.0 | 1.7 | 0.00 | 0.00 | 0.00 | 80 | 1001.4 |
| 20260507053005 | 47 | 50 | 0.0 | 1.7 | 0.00 | 0.00 | 0.00 | 80 | 1001.1 |
| 20260507052804 | 47 | 135 | 0.0 | 0.9 | 0.00 | 0.00 | 0.00 | 80 | 1001.3 |
| 20260507052605 | 47 | 129 | 0.0 | 1.7 | 0.00 | 0.00 | 0.00 | 80 | 1001.2 |
| 20260507052405 | 47 | 129 | 0.0 | 1.7 | 0.00 | 0.00 | 0.00 | 80 | 1001.2 |
| 20260507052205 | 47 | 129 | 0.0 | 1.7 | 0.00 | 0.00 | 0.00 | 80 | 1001.2 |
| 20260507052004 | 47 | 129 | 0.0 | 1.7 | 0.00 | 0.00 | 0.00 | 80 | 1001.2 |
| 20260507051605 | 47 | 79 | 0.0 | 1.7 | 0.00 | 0.00 | 0.00 | 80 | 1001.2 |
| 20260507051404 | 47 | 83 | 0.0 | 2.6 | 0.00 | 0.00 | 0.00 | 80 | 1001.3 |
| 20260507051204 | 47 | 64 | 0.9 | 2.6 | 0.00 | 0.00 | 0.00 | 80 | 1001.1 |
| 20260507051005 | 47 | 69 | 0.9 | 2.6 | 0.00 | 0.00 | 0.00 | 80 | 1001.2 |
| 20260507050805 | 47 | 66 | 0.9 | 2.6 | 0.00 | 0.00 | 0.00 | 80 | 1001.2 |
| 20260507050604 | 47 | 61 | 0.9 | 2.6 | 0.00 | 0.00 | 0.00 | 80 | 1001.3 |
| 20260507050405 | 47 | 55 | 0.9 | 2.6 | 0.00 | 0.00 | 0.00 | 80 | 1001.2 |
| 20260507050204 | 47 | 60 | 0.9 | 1.7 | 0.00 | 0.00 | 0.00 | 80 | 1001.2 |
| 20260507050006 | 47 | 42 | 0.0 | 1.7 | 0.00 | 0.00 | 0.00 | 80 | 1001.3 |
| 20260507045805 | 47 | 35 | 0.0 | 1.7 | 0.00 | 0.00 | 0.00 | 80 | 1001.2 |
| 20260507045605 | 47 | 42 | 0.9 | 1.7 | 0.00 | 0.00 | 0.00 | 80 | 1001.1 |
| 20260507045404 | 47 | 34 | 0.9 | 1.7 | 0.00 | 0.00 | 0.00 | 80 | 1001.1 |
| 20260507045005 | 47 | 20 | 0.9 | 1.7 | 0.00 | 0.00 | 0.00 | 80 | 1001.2 |
| 20260507044805 | 47 | 30 | 0.9 | 1.7 | 0.00 | 0.00 | 0.00 | 80 | 1001.2 |
| 20260507044605 | 47 | 12 | 0.9 | 1.7 | 0.00 | 0.00 | 0.00 | 80 | 1001.1 |
| 20260507044204 | 47 | 14 | 0.9 | 1.7 | 0.00 | 0.00 | 0.00 | 80 | 1001.2 |
| 20260507043804 | 47 | 326 | 0.0 | 0.9 | 0.00 | 0.00 | 0.00 | 80 | 1001.2 |
| 20260507043605 | 47 | 66 | 0.0 | 0.9 | 0.00 | 0.00 | 0.00 | 80 | 1001.1 |
| 20260507043405 | 47 | 43 | 0.0 | 0.9 | 0.00 | 0.00 | 0.00 | 80 | 1001.1 |
| 20260507043205 | 47 | 49 | 0.0 | 0.9 | 0.00 | 0.00 | 0.00 | 80 | 1001.3 |
| 20260507043004 | 47 | 49 | 0.0 | 0.9 | 0.00 | 0.00 | 0.00 | 80 | 1001.0 |
| 20260507042805 | 47 | 46 | 0.0 | 0.9 | 0.00 | 0.00 | 0.00 | 80 | 1001.2 |
| 20260507042605 | 47 | 20 | 0.0 | 0.9 | 0.00 | 0.00 | 0.00 | 80 | 1001.0 |
| 20260507042404 | 47 | 23 | 0.0 | 0.9 | 0.00 | 0.00 | 0.00 | 80 | 1001.1 |
| 20260507042204 | 47 | 37 | 0.0 | 0.9 | 0.00 | 0.00 | 0.00 | 80 | 1001.1 |
| 20260507042005 | 47 | 62 | 0.0 | 0.9 | 0.00 | 0.00 | 0.00 | 80 | 1001.2 |
| 20260507041805 | 47 | 72 | 0.0 | 1.7 | 0.00 | 0.00 | 0.00 | 80 | 1001.2 |
| 20260507041405 | 47 | 61 | 0.0 | 1.7 | 0.00 | 0.00 | 0.00 | 80 | 1001.1 |
| 20260507041005 | 47 | 54 | 0.0 | 1.7 | 0.00 | 0.00 | 0.00 | 80 | 1001.0 |
| 20260507040405 | 47 | 25 | 0.0 | 0.9 | 0.00 | 0.00 | 0.00 | 80 | 1001.0 |
| 20260507040205 | 47 | 25 | 0.0 | 0.9 | 0.00 | 0.00 | 0.00 | 80 | 1001.0 |
| 20260507035805 | 47 | 58 | 0.0 | 0.9 | 0.00 | 0.00 | 0.00 | 79 | 1001.1 |
| 20260507035604 | 47 | 19 | 0.0 | 1.7 | 0.00 | 0.00 | 0.00 | 79 | 1001.0 |
| 20260507035405 | 47 | 14 | 0.0 | 1.7 | 0.00 | 0.00 | 0.00 | 79 | 1001.0 |
| 20260507035205 | 47 | 29 | 0.9 | 1.7 | 0.00 | 0.00 | 0.00 | 79 | 1001.2 |
| 20260507035004 | 47 | 29 | 0.9 | 1.7 | 0.00 | 0.00 | 0.00 | 79 | 1001.0 |
| 20260507034804 | 47 | 29 | 0.9 | 1.7 | 0.00 | 0.00 | 0.00 | 79 | 1001.0 |
| 20260507034605 | 47 | 26 | 0.9 | 1.7 | 0.00 | 0.00 | 0.00 | 79 | 1000.9 |
| 20260507034405 | 47 | 32 | 0.0 | 1.7 | 0.00 | 0.00 | 0.00 | 79 | 1000.9 |
| 20260507034205 | 47 | 7 | 0.0 | 0.9 | 0.00 | 0.00 | 0.00 | 79 | 1001.0 |
| 20260507034004 | 47 | 11 | 0.0 | 0.9 | 0.00 | 0.00 | 0.00 | 79 | 1001.0 |
| 20260507033804 | 48 | 15 | 0.0 | 0.9 | 0.00 | 0.00 | 0.00 | 79 | 1000.9 |
| 20260507033604 | 48 | 44 | 0.0 | 1.7 | 0.00 | 0.00 | 0.00 | 79 | 1000.9 |
| 20260507033405 | 48 | 47 | 0.0 | 1.7 | 0.00 | 0.00 | 0.00 | 79 | 1001.0 |
| 20260507033205 | 48 | 60 | 0.0 | 1.7 | 0.00 | 0.00 | 0.00 | 79 | 1000.9 |
| 20260507033004 | 48 | 63 | 0.0 | 1.7 | 0.00 | 0.00 | 0.00 | 79 | 1001.0 |
| 20260507032805 | 48 | 59 | 0.0 | 1.7 | 0.00 | 0.00 | 0.00 | 79 | 1001.0 |
| 20260507032605 | 48 | 97 | 0.0 | 1.7 | 0.00 | 0.00 | 0.00 | 79 | 1001.0 |
| 20260507032404 | 48 | 100 | 0.0 | 1.7 | 0.00 | 0.00 | 0.00 | 79 | 1000.9 |
| 20260507032205 | 48 | 100 | 0.0 | 1.7 | 0.00 | 0.00 | 0.00 | 79 | 1000.9 |
| 20260507032004 | 48 | 100 | 0.0 | 1.7 | 0.00 | 0.00 | 0.00 | 79 | 1000.8 |
| 20260507031804 | 48 | 173 | 0.0 | 1.7 | 0.00 | 0.00 | 0.00 | 79 | 1000.9 |
| 20260507031604 | 48 | 0 | 0.0 | 0.0 | 0.00 | 0.00 | 0.00 | 79 | 1000.9 |
| 20260507031404 | 48 | 162 | 0.0 | 0.9 | 0.00 | 0.00 | 0.00 | 79 | 1001.0 |
| 20260507031205 | 48 | 112 | 0.0 | 0.9 | 0.00 | 0.00 | 0.00 | 78 | 1001.0 |
| 20260507031005 | 48 | 112 | 0.0 | 0.9 | 0.00 | 0.00 | 0.00 | 78 | 1000.9 |
| 20260507030805 | 48 | 112 | 0.0 | 0.9 | 0.00 | 0.00 | 0.00 | 78 | 1000.9 |
| 20260507030604 | 48 | 112 | 0.0 | 0.9 | 0.00 | 0.00 | 0.00 | 78 | 1001.0 |
| 20260507030204 | 48 | 270 | 0.0 | 0.9 | 0.00 | 0.00 | 0.00 | 78 | 1000.9 |
| 20260507025805 | 48 | 333 | 0.0 | 0.9 | 0.00 | 0.00 | 0.00 | 78 | 1000.9 |
| 20260507025404 | 48 | 15 | 0.0 | 0.9 | 0.00 | 0.00 | 0.00 | 78 | 1001.1 |
| 20260507025205 | 48 | 9 | 0.0 | 0.9 | 0.00 | 0.00 | 0.00 | 78 | 1001.1 |
| 20260507025005 | 48 | 12 | 0.0 | 0.9 | 0.00 | 0.00 | 0.00 | 78 | 1000.9 |
| 20260507024804 | 48 | 20 | 0.0 | 0.9 | 0.00 | 0.00 | 0.00 | 79 | 1001.0 |
| 20260507024604 | 48 | 20 | 0.0 | 0.9 | 0.00 | 0.00 | 0.00 | 79 | 1001.0 |
| 20260507024404 | 48 | 1 | 0.0 | 0.9 | 0.00 | 0.00 | 0.00 | 79 | 1000.9 |
| 20260507024205 | 48 | 0 | 0.0 | 0.0 | 0.00 | 0.00 | 0.00 | 79 | 1001.0 |
| 20260507024005 | 48 | 0 | 0.0 | 0.0 | 0.00 | 0.00 | 0.00 | 79 | 1001.1 |
| 20260507023605 | 48 | 25 | 0.0 | 1.7 | 0.00 | 0.00 | 0.00 | 79 | 1001.0 |
| 20260507023404 | 48 | 45 | 0.9 | 1.7 | 0.00 | 0.00 | 0.00 | 79 | 1001.0 |
| 20260507023005 | 48 | 352 | 0.9 | 1.7 | 0.00 | 0.00 | 0.00 | 79 | 1001.0 |
| 20260507022805 | 48 | 349 | 0.9 | 1.7 | 0.00 | 0.00 | 0.00 | 79 | 1001.1 |
| 20260507022604 | 48 | 2 | 1.7 | 1.7 | 0.00 | 0.00 | 0.00 | 79 | 1001.0 |
| 20260507022404 | 48 | 349 | 1.7 | 1.7 | 0.00 | 0.00 | 0.00 | 79 | 1001.0 |
| 20260507022204 | 48 | 42 | 0.9 | 1.7 | 0.00 | 0.00 | 0.00 | 79 | 1001.0 |
| 20260507022005 | 48 | 100 | 0.9 | 1.7 | 0.00 | 0.00 | 0.00 | 79 | 1001.0 |
| 20260507021604 | 48 | 63 | 0.0 | 1.7 | 0.00 | 0.00 | 0.00 | 79 | 1000.9 |
| 20260507021404 | 48 | 81 | 0.0 | 1.7 | 0.00 | 0.00 | 0.00 | 79 | 1000.9 |
| 20260507021204 | 48 | 99 | 0.0 | 1.7 | 0.00 | 0.00 | 0.00 | 79 | 1000.9 |
| 20260507021004 | 48 | 93 | 0.0 | 1.7 | 0.00 | 0.00 | 0.00 | 79 | 1000.7 |
| 20260507020805 | 48 | 93 | 0.0 | 1.7 | 0.00 | 0.00 | 0.00 | 79 | 1001.0 |
| 20260507020404 | 48 | 66 | 0.0 | 0.9 | 0.00 | 0.00 | 0.00 | 80 | 1000.8 |
| 20260507020204 | 48 | 58 | 0.0 | 0.9 | 0.00 | 0.00 | 0.00 | 80 | 1000.8 |
| 20260507020004 | 48 | 68 | 0.0 | 0.9 | 0.00 | 0.00 | 0.00 | 80 | 1000.9 |
| 20260507015805 | 48 | 68 | 0.0 | 0.9 | 0.00 | 0.00 | 0.00 | 80 | 1000.9 |
| 20260507015605 | 48 | 90 | 0.0 | 0.9 | 0.00 | 0.00 | 0.00 | 80 | 1000.9 |
| 20260507015404 | 48 | 90 | 0.0 | 0.9 | 0.00 | 0.00 | 0.00 | 80 | 1001.0 |
| 20260507015204 | 48 | 0 | 0.0 | 0.0 | 0.00 | 0.00 | 0.00 | 80 | 1001.0 |
| 20260507015004 | 48 | 0 | 0.0 | 0.0 | 0.00 | 0.00 | 0.00 | 80 | 1001.0 |
| 20260507014805 | 48 | 0 | 0.0 | 0.0 | 0.00 | 0.00 | 0.00 | 80 | 1000.9 |
| 20260507014605 | 48 | 0 | 0.0 | 0.0 | 0.00 | 0.00 | 0.00 | 80 | 1001.0 |
| 20260507014404 | 48 | 0 | 0.0 | 0.0 | 0.00 | 0.00 | 0.00 | 80 | 1001.0 |
| 20260507014004 | 48 | 0 | 0.0 | 0.0 | 0.00 | 0.00 | 0.00 | 80 | 1000.9 |
| 20260507013805 | 48 | 0 | 0.0 | 0.0 | 0.00 | 0.00 | 0.00 | 80 | 1001.0 |
| 20260507013605 | 48 | 0 | 0.0 | 0.0 | 0.00 | 0.00 | 0.00 | 80 | 1000.9 |
| 20260507013404 | 48 | 0 | 0.0 | 0.0 | 0.00 | 0.00 | 0.00 | 80 | 1001.0 |
| 20260507013205 | 48 | 0 | 0.0 | 0.0 | 0.00 | 0.00 | 0.00 | 80 | 1001.0 |
| 20260507013005 | 48 | 0 | 0.0 | 0.0 | 0.00 | 0.00 | 0.00 | 79 | 1001.0 |
| 20260507012804 | 48 | 0 | 0.0 | 0.0 | 0.00 | 0.00 | 0.00 | 79 | 1000.9 |
| 20260507012604 | 48 | 0 | 0.0 | 0.0 | 0.00 | 0.00 | 0.00 | 79 | 1000.8 |
| 20260507012405 | 48 | 0 | 0.0 | 0.0 | 0.00 | 0.00 | 0.00 | 79 | 1000.9 |
| 20260507012205 | 48 | 29 | 0.0 | 1.7 | 0.00 | 0.00 | 0.00 | 79 | 1000.8 |
| 20260507012005 | 48 | 29 | 0.0 | 1.7 | 0.00 | 0.00 | 0.00 | 79 | 1000.9 |
| 20260507011804 | 48 | 29 | 0.0 | 1.7 | 0.00 | 0.00 | 0.00 | 79 | 1000.9 |
| 20260507011604 | 48 | 29 | 0.0 | 1.7 | 0.00 | 0.00 | 0.00 | 79 | 1000.8 |
| 20260507011204 | 48 | 0 | 0.0 | 0.0 | 0.00 | 0.00 | 0.00 | 79 | 1000.8 |
| 20260507011004 | 48 | 0 | 0.0 | 0.0 | 0.00 | 0.00 | 0.00 | 79 | 1000.9 |
| 20260507010805 | 48 | 0 | 0.0 | 0.0 | 0.00 | 0.00 | 0.00 | 79 | 1000.9 |
| 20260507010605 | 49 | 0 | 0.0 | 0.0 | 0.00 | 0.00 | 0.00 | 79 | 1000.8 |
| 20260507010404 | 49 | 0 | 0.0 | 0.0 | 0.00 | 0.00 | 0.00 | 80 | 1000.8 |
| 20260507010004 | 49 | 0 | 0.0 | 0.0 | 0.00 | 0.00 | 0.00 | 80 | 1000.8 |
| 20260507005805 | 49 | 26 | 0.0 | 1.7 | 0.00 | 0.00 | 0.00 | 80 | 1000.8 |
| 20260507005605 | 49 | 15 | 0.0 | 1.7 | 0.00 | 0.00 | 0.00 | 80 | 1000.8 |
| 20260507005405 | 49 | 13 | 0.0 | 1.7 | 0.00 | 0.00 | 0.00 | 80 | 1000.8 |
| 20260507005004 | 49 | 35 | 0.9 | 1.7 | 0.00 | 0.00 | 0.00 | 80 | 1000.8 |
| 20260507004804 | 49 | 182 | 0.0 | 1.7 | 0.00 | 0.00 | 0.00 | 80 | 1000.8 |
| 20260507004605 | 49 | 170 | 0.0 | 1.7 | 0.00 | 0.00 | 0.00 | 80 | 1000.9 |
| 20260507004404 | 49 | 167 | 0.0 | 1.7 | 0.00 | 0.00 | 0.00 | 80 | 1000.8 |
| 20260507004204 | 49 | 181 | 0.0 | 1.7 | 0.00 | 0.00 | 0.00 | 80 | 1000.8 |
| 20260507004005 | 49 | 181 | 0.0 | 1.7 | 0.00 | 0.00 | 0.00 | 80 | 1000.9 |
| 20260507003804 | 49 | 45 | 0.0 | 0.9 | 0.00 | 0.00 | 0.00 | 80 | 1000.9 |
| 20260507003604 | 49 | 337 | 0.0 | 0.9 | 0.00 | 0.00 | 0.00 | 80 | 1001.1 |
| 20260507003405 | 49 | 120 | 0.0 | 1.7 | 0.00 | 0.00 | 0.00 | 80 | 1000.9 |
| 20260507003205 | 49 | 118 | 0.0 | 1.7 | 0.00 | 0.00 | 0.00 | 81 | 1001.0 |
| 20260507002804 | 49 | 126 | 0.9 | 1.7 | 0.00 | 0.00 | 0.00 | 81 | 1000.8 |
| 20260507002604 | 49 | 118 | 0.0 | 1.7 | 0.00 | 0.00 | 0.00 | 81 | 1001.1 |
| 20260507002404 | 49 | 75 | 0.0 | 0.9 | 0.00 | 0.00 | 0.00 | 81 | 1000.9 |
| 20260507002205 | 49 | 68 | 0.0 | 0.9 | 0.00 | 0.00 | 0.00 | 81 | 1000.9 |
| 20260507002004 | 49 | 1 | 0.0 | 0.9 | 0.00 | 0.00 | 0.00 | 81 | 1001.1 |
| 20260507001804 | 49 | 76 | 0.0 | 0.9 | 0.00 | 0.00 | 0.00 | 81 | 1000.9 |
| 20260507001604 | 49 | 68 | 0.0 | 0.9 | 0.00 | 0.00 | 0.00 | 81 | 1000.9 |
| 20260507001405 | 49 | 43 | 0.0 | 0.9 | 0.00 | 0.00 | 0.00 | 81 | 1000.9 |
| 20260507001204 | 49 | 42 | 0.0 | 0.9 | 0.00 | 0.00 | 0.00 | 81 | 1001.1 |
| 20260507000605 | 49 | 262 | 0.0 | 0.9 | 0.00 | 0.00 | 0.00 | 81 | 1001.0 |
| 20260507000205 | 49 | 270 | 0.0 | 0.9 | 0.00 | 0.00 | 0.00 | 82 | 1001.1 |
| 20260506235604 | 49 | 7 | 0.9 | 1.7 | 0.00 | 0.00 | 0.00 | 82 | 1001.1 |
| 20260506235405 | 49 | 7 | 0.9 | 1.7 | 0.00 | 0.00 | 0.00 | 82 | 1001.0 |
| 20260506235204 | 49 | 358 | 0.9 | 1.7 | 0.00 | 0.00 | 0.00 | 82 | 1000.9 |
| 20260506235004 | 49 | 337 | 0.0 | 1.7 | 0.00 | 0.00 | 0.00 | 82 | 1001.0 |
| 20260506234804 | 49 | 341 | 0.0 | 1.7 | 0.00 | 0.00 | 0.00 | 82 | 1001.0 |
| 20260506234605 | 49 | 337 | 0.0 | 1.7 | 0.00 | 0.00 | 0.00 | 82 | 1001.0 |
| 20260506234405 | 49 | 337 | 0.0 | 1.7 | 0.00 | 0.00 | 0.00 | 82 | 1001.0 |
| 20260506233605 | 49 | 344 | 0.9 | 1.7 | 0.00 | 0.00 | 0.00 | 82 | 1001.1 |
| 20260506233405 | 49 | 335 | 0.9 | 1.7 | 0.00 | 0.00 | 0.00 | 82 | 1001.0 |
| 20260506233205 | 49 | 330 | 0.9 | 1.7 | 0.00 | 0.00 | 0.00 | 82 | 1001.0 |
| 20260506233004 | 49 | 321 | 0.9 | 1.7 | 0.00 | 0.00 | 0.00 | 82 | 1001.1 |
| 20260506232804 | 49 | 325 | 1.7 | 1.7 | 0.00 | 0.00 | 0.00 | 82 | 1001.1 |
| 20260506232404 | 49 | 323 | 0.9 | 1.7 | 0.00 | 0.00 | 0.00 | 82 | 1001.1 |
| 20260506232005 | 49 | 345 | 0.0 | 1.7 | 0.00 | 0.00 | 0.00 | 82 | 1001.1 |
| 20260506231804 | 49 | 1 | 0.0 | 1.7 | 0.00 | 0.00 | 0.00 | 82 | 1001.1 |
| 20260506231404 | 49 | 327 | 0.9 | 1.7 | 0.00 | 0.00 | 0.00 | 82 | 1001.0 |
| 20260506231204 | 49 | 325 | 0.9 | 1.7 | 0.00 | 0.00 | 0.00 | 82 | 1001.1 |
| 20260506231004 | 49 | 319 | 1.7 | 1.7 | 0.00 | 0.00 | 0.00 | 82 | 1001.1 |
| 20260506230604 | 49 | 315 | 0.9 | 1.7 | 0.00 | 0.00 | 0.00 | 82 | 1001.2 |
| 20260506230404 | 49 | 317 | 0.9 | 1.7 | 0.00 | 0.00 | 0.00 | 82 | 1001.2 |
| 20260506225805 | 49 | 331 | 0.9 | 1.7 | 0.00 | 0.00 | 0.00 | 82 | 1001.2 |
| 20260506225604 | 49 | 340 | 1.7 | 2.6 | 0.00 | 0.00 | 0.00 | 82 | 1001.2 |
| 20260506225404 | 49 | 342 | 1.7 | 2.6 | 0.00 | 0.00 | 0.00 | 82 | 1001.3 |
| 20260506225205 | 49 | 343 | 2.6 | 2.6 | 0.00 | 0.00 | 0.00 | 82 | 1001.1 |
| 20260506225004 | 49 | 342 | 2.6 | 2.6 | 0.00 | 0.00 | 0.00 | 82 | 1001.1 |
| 20260506224804 | 49 | 345 | 2.6 | 2.6 | 0.00 | 0.00 | 0.00 | 82 | 1001.2 |
| 20260506224604 | 49 | 346 | 2.6 | 2.6 | 0.00 | 0.00 | 0.00 | 82 | 1001.2 |
| 20260506224405 | 49 | 346 | 1.7 | 2.6 | 0.00 | 0.00 | 0.00 | 82 | 1001.1 |
| 20260506223604 | 49 | 338 | 2.6 | 3.5 | 0.00 | 0.00 | 0.00 | 82 | 1001.1 |
| 20260506223405 | 49 | 336 | 2.6 | 3.5 | 0.00 | 0.00 | 0.00 | 81 | 1001.1 |
| 20260506223205 | 49 | 331 | 2.6 | 3.5 | 0.00 | 0.00 | 0.00 | 81 | 1001.0 |
| 20260506222405 | 49 | 337 | 1.7 | 2.6 | 0.00 | 0.00 | 0.00 | 81 | 1001.2 |
| 20260506222204 | 49 | 339 | 1.7 | 2.6 | 0.00 | 0.00 | 0.00 | 81 | 1001.1 |
| 20260506221604 | 49 | 339 | 0.9 | 1.7 | 0.00 | 0.00 | 0.00 | 81 | 1001.1 |
| 20260506221404 | 49 | 345 | 1.7 | 1.7 | 0.00 | 0.00 | 0.00 | 81 | 1001.1 |
| 20260506221205 | 49 | 343 | 1.7 | 1.7 | 0.00 | 0.00 | 0.00 | 81 | 1001.1 |
| 20260506221005 | 49 | 347 | 1.7 | 2.6 | 0.00 | 0.00 | 0.00 | 81 | 1001.0 |
| 20260506220804 | 49 | 351 | 1.7 | 3.5 | 0.00 | 0.00 | 0.00 | 81 | 1001.0 |
| 20260506220605 | 49 | 349 | 2.6 | 4.3 | 0.00 | 0.00 | 0.00 | 81 | 1001.0 |
| 20260506220405 | 49 | 351 | 2.6 | 4.3 | 0.00 | 0.00 | 0.00 | 81 | 1001.0 |
| 20260506220004 | 49 | 345 | 2.6 | 4.3 | 0.00 | 0.00 | 0.00 | 81 | 1000.9 |
| 20260506215804 | 49 | 348 | 3.5 | 4.3 | 0.00 | 0.00 | 0.00 | 81 | 1001.1 |
| 20260506215605 | 49 | 348 | 3.5 | 4.3 | 0.00 | 0.00 | 0.00 | 81 | 1000.9 |
| 20260506215405 | 49 | 341 | 3.5 | 4.3 | 0.00 | 0.00 | 0.00 | 81 | 1000.8 |
| 20260506215204 | 49 | 334 | 3.5 | 5.2 | 0.00 | 0.00 | 0.00 | 81 | 1000.8 |
| 20260506215005 | 49 | 338 | 3.5 | 5.2 | 0.00 | 0.00 | 0.00 | 81 | 1000.8 |
| 20260506214804 | 49 | 336 | 3.5 | 5.2 | 0.00 | 0.00 | 0.00 | 80 | 1000.5 |
| 20260506214605 | 49 | 329 | 3.5 | 5.2 | 0.00 | 0.00 | 0.00 | 80 | 1000.7 |
| 20260506214204 | 49 | 338 | 2.6 | 5.2 | 0.00 | 0.00 | 0.00 | 80 | 1000.7 |
| 20260506214004 | 49 | 330 | 1.7 | 2.6 | 0.00 | 0.00 | 0.00 | 80 | 1000.6 |
| 20260506213805 | 49 | 330 | 1.7 | 2.6 | 0.00 | 0.00 | 0.00 | 80 | 1000.7 |
| 20260506213604 | 49 | 340 | 2.6 | 3.5 | 0.00 | 0.00 | 0.00 | 80 | 1000.6 |
| 20260506213404 | 49 | 343 | 2.6 | 3.5 | 0.00 | 0.00 | 0.00 | 80 | 1000.6 |
| 20260506213006 | 49 | 353 | 3.5 | 4.3 | 0.00 | 0.00 | 0.00 | 80 | 1000.6 |
| 20260506212804 | 49 | 350 | 3.5 | 5.2 | 0.00 | 0.00 | 0.00 | 80 | 1000.6 |
| 20260506212604 | 49 | 342 | 3.5 | 5.2 | 0.00 | 0.00 | 0.00 | 80 | 1000.7 |
| 20260506212205 | 49 | 337 | 3.5 | 5.2 | 0.00 | 0.00 | 0.00 | 80 | 1000.7 |
| 20260506212005 | 49 | 327 | 3.5 | 5.2 | 0.00 | 0.00 | 0.00 | 80 | 1000.7 |
| 20260506211605 | 49 | 330 | 2.6 | 3.5 | 0.00 | 0.00 | 0.00 | 80 | 1000.5 |
| 20260506211404 | 49 | 330 | 3.5 | 4.3 | 0.00 | 0.00 | 0.00 | 80 | 1000.6 |
| 20260506211204 | 49 | 329 | 3.5 | 4.3 | 0.00 | 0.00 | 0.00 | 80 | 1000.5 |
| 20260506211005 | 49 | 338 | 3.5 | 5.2 | 0.00 | 0.00 | 0.00 | 80 | 1000.6 |
| 20260506210804 | 49 | 345 | 4.3 | 5.2 | 0.00 | 0.00 | 0.00 | 80 | 1000.6 |
| 20260506210404 | 49 | 344 | 4.3 | 6.1 | 0.00 | 0.00 | 0.00 | 80 | 1000.5 |
| 20260506210005 | 49 | 342 | 4.3 | 6.1 | 0.00 | 0.00 | 0.00 | 80 | 1000.5 |
| 20260506205804 | 49 | 340 | 4.3 | 6.1 | 0.00 | 0.00 | 0.00 | 80 | 1000.6 |
| 20260506205605 | 49 | 340 | 3.5 | 6.1 | 0.00 | 0.00 | 0.00 | 79 | 1000.5 |
| 20260506205405 | 49 | 335 | 3.5 | 4.3 | 0.00 | 0.00 | 0.00 | 79 | 1000.3 |
| 20260506205204 | 49 | 339 | 3.5 | 4.3 | 0.00 | 0.00 | 0.00 | 79 | 1000.4 |
| 20260506205005 | 50 | 338 | 3.5 | 4.3 | 0.00 | 0.00 | 0.00 | 79 | 1000.4 |
| 20260506204805 | 50 | 340 | 3.5 | 3.5 | 0.00 | 0.00 | 0.00 | 79 | 1000.4 |
| 20260506204604 | 50 | 348 | 3.5 | 3.5 | 0.00 | 0.00 | 0.00 | 78 | 1000.5 |
| 20260506204404 | 50 | 353 | 3.5 | 3.5 | 0.00 | 0.00 | 0.00 | 78 | 1000.5 |
| 20260506204205 | 50 | 350 | 2.6 | 3.5 | 0.00 | 0.00 | 0.00 | 78 | 1000.4 |
| 20260506204004 | 50 | 350 | 3.5 | 5.2 | 0.00 | 0.00 | 0.00 | 78 | 1000.4 |
| 20260506203804 | 50 | 342 | 3.5 | 5.2 | 0.00 | 0.00 | 0.00 | 78 | 1000.3 |
| 20260506203605 | 50 | 343 | 4.3 | 7.0 | 0.00 | 0.00 | 0.00 | 77 | 1000.4 |
| 20260506203404 | 50 | 343 | 4.3 | 7.0 | 0.00 | 0.00 | 0.00 | 77 | 1000.4 |
| 20260506203205 | 50 | 344 | 4.3 | 7.0 | 0.00 | 0.00 | 0.00 | 77 | 1000.3 |
| 20260506203005 | 50 | 344 | 4.3 | 7.0 | 0.00 | 0.00 | 0.00 | 77 | 1000.2 |
| 20260506202804 | 50 | 342 | 4.3 | 7.0 | 0.00 | 0.00 | 0.00 | 76 | 1000.2 |
| 20260506202605 | 50 | 340 | 3.5 | 5.2 | 0.00 | 0.00 | 0.00 | 76 | 1000.3 |
| 20260506202404 | 50 | 344 | 3.5 | 5.2 | 0.00 | 0.00 | 0.00 | 76 | 1000.4 |
| 20260506202204 | 50 | 351 | 3.5 | 3.5 | 0.00 | 0.00 | 0.00 | 75 | 1000.3 |
| 20260506202005 | 50 | 352 | 3.5 | 3.5 | 0.00 | 0.00 | 0.00 | 75 | 1000.2 |
| 20260506201804 | 50 | 359 | 3.5 | 3.5 | 0.00 | 0.00 | 0.00 | 75 | 1000.4 |
| 20260506201604 | 50 | 357 | 3.5 | 6.1 | 0.00 | 0.00 | 0.00 | 75 | 1000.3 |
| 20260506201405 | 50 | 352 | 3.5 | 6.1 | 0.00 | 0.00 | 0.00 | 75 | 1000.2 |
| 20260506201204 | 50 | 344 | 3.5 | 6.1 | 0.00 | 0.00 | 0.00 | 74 | 1000.3 |
| 20260506201005 | 50 | 348 | 3.5 | 6.1 | 0.00 | 0.00 | 0.00 | 74 | 1000.2 |
| 20260506200605 | 50 | 343 | 4.3 | 7.0 | 0.00 | 0.00 | 0.00 | 74 | 1000.2 |
| 20260506200404 | 50 | 348 | 5.2 | 7.0 | 0.00 | 0.00 | 0.00 | 74 | 1000.2 |
| 20260506200005 | 51 | 348 | 5.2 | 7.0 | 0.00 | 0.00 | 0.00 | 74 | 1000.2 |
| 20260506195804 | 51 | 347 | 5.2 | 7.0 | 0.00 | 0.00 | 0.00 | 74 | 1000.2 |
| 20260506195604 | 51 | 344 | 5.2 | 7.0 | 0.00 | 0.00 | 0.00 | 73 | 1000.1 |
| 20260506195405 | 51 | 341 | 6.1 | 7.0 | 0.00 | 0.00 | 0.00 | 73 | 1000.3 |
| 20260506195204 | 51 | 337 | 6.1 | 7.0 | 0.00 | 0.00 | 0.00 | 73 | 1000.1 |
| 20260506195004 | 51 | 337 | 6.1 | 9.6 | 0.00 | 0.00 | 0.00 | 73 | 1000.1 |
| 20260506194805 | 51 | 341 | 6.1 | 9.6 | 0.00 | 0.00 | 0.00 | 72 | 1000.1 |
| 20260506194604 | 51 | 348 | 6.1 | 9.6 | 0.00 | 0.00 | 0.00 | 72 | 1000.0 |
| 20260506194404 | 51 | 350 | 6.1 | 9.6 | 0.00 | 0.00 | 0.00 | 72 | 1000.0 |
| 20260506194205 | 51 | 353 | 6.1 | 9.6 | 0.00 | 0.00 | 0.00 | 71 | 1000.1 |
| 20260506194005 | 51 | 347 | 5.2 | 9.6 | 0.00 | 0.00 | 0.00 | 71 | 1000.1 |
| 20260506193804 | 51 | 346 | 5.2 | 7.0 | 0.00 | 0.00 | 0.00 | 71 | 999.9 |
| 20260506193604 | 51 | 347 | 5.2 | 8.7 | 0.00 | 0.00 | 0.00 | 71 | 999.9 |
| 20260506193206 | 51 | 343 | 6.1 | 8.7 | 0.00 | 0.00 | 0.00 | 70 | 1000.0 |
| 20260506193004 | 51 | 342 | 6.1 | 8.7 | 0.00 | 0.00 | 0.00 | 70 | 1000.0 |
| 20260506192804 | 51 | 340 | 5.2 | 8.7 | 0.00 | 0.00 | 0.00 | 70 | 999.9 |
| 20260506192605 | 52 | 334 | 5.2 | 7.0 | 0.00 | 0.00 | 0.00 | 70 | 999.9 |
| 20260506192404 | 52 | 336 | 5.2 | 7.0 | 0.00 | 0.00 | 0.00 | 70 | 999.9 |
| 20260506192005 | 52 | 340 | 4.3 | 6.1 | 0.00 | 0.00 | 0.00 | 69 | 999.9 |
| 20260506191805 | 52 | 341 | 4.3 | 6.1 | 0.00 | 0.00 | 0.00 | 69 | 999.9 |
| 20260506191604 | 52 | 335 | 4.3 | 7.0 | 0.00 | 0.00 | 0.00 | 69 | 999.8 |
| 20260506191404 | 52 | 331 | 5.2 | 7.0 | 0.00 | 0.00 | 0.00 | 68 | 999.8 |
| 20260506191205 | 52 | 329 | 5.2 | 7.0 | 0.00 | 0.00 | 0.00 | 68 | 999.8 |
| 20260506191004 | 52 | 329 | 5.2 | 7.0 | 0.00 | 0.00 | 0.00 | 68 | 999.7 |
| 20260506190604 | 52 | 325 | 5.2 | 7.0 | 0.00 | 0.00 | 0.00 | 67 | 999.7 |
| 20260506190205 | 52 | 334 | 4.3 | 5.2 | 0.00 | 0.00 | 0.00 | 66 | 999.8 |
| 20260506185804 | 52 | 351 | 4.3 | 5.2 | 0.00 | 0.00 | 0.00 | 65 | 999.6 |
| 20260506185605 | 53 | 352 | 4.3 | 5.2 | 0.00 | 0.00 | 0.00 | 65 | 999.7 |
| 20260506185404 | 53 | 351 | 4.3 | 5.2 | 0.00 | 0.00 | 0.00 | 65 | 999.6 |
| 20260506185204 | 53 | 342 | 3.5 | 5.2 | 0.00 | 0.00 | 0.00 | 64 | 999.6 |
| 20260506184605 | 53 | 336 | 4.3 | 6.1 | 0.00 | 0.00 | 0.00 | 63 | 999.6 |
| 20260506184404 | 53 | 339 | 4.3 | 7.8 | 0.00 | 0.00 | 0.00 | 63 | 999.6 |
| 20260506184204 | 53 | 340 | 5.2 | 7.8 | 0.00 | 0.00 | 0.00 | 63 | 999.5 |
| 20260506184005 | 53 | 336 | 5.2 | 7.8 | 0.00 | 0.00 | 0.00 | 63 | 999.6 |
| 20260506183804 | 53 | 330 | 6.1 | 7.8 | 0.00 | 0.00 | 0.00 | 63 | 999.4 |
| 20260506183604 | 53 | 333 | 6.1 | 7.8 | 0.00 | 0.00 | 0.00 | 63 | 999.4 |
| 20260506183404 | 53 | 335 | 5.2 | 7.8 | 0.00 | 0.00 | 0.00 | 63 | 999.5 |
| 20260506182804 | 54 | 349 | 5.2 | 7.0 | 0.00 | 0.00 | 0.00 | 62 | 999.3 |
| 20260506182604 | 54 | 350 | 5.2 | 7.0 | 0.00 | 0.00 | 0.00 | 62 | 999.4 |
| 20260506182404 | 54 | 347 | 5.2 | 7.0 | 0.00 | 0.00 | 0.00 | 61 | 999.3 |
| 20260506182204 | 54 | 347 | 5.2 | 7.0 | 0.00 | 0.00 | 0.00 | 61 | 999.3 |
| 20260506181606 | 54 | 351 | 4.3 | 7.0 | 0.00 | 0.00 | 0.00 | 61 | 999.2 |
| 20260506181404 | 54 | 348 | 5.2 | 7.0 | 0.00 | 0.00 | 0.00 | 61 | 999.3 |
| 20260506181204 | 54 | 339 | 5.2 | 7.0 | 0.00 | 0.00 | 0.00 | 61 | 999.3 |
| 20260506181004 | 54 | 335 | 5.2 | 7.0 | 0.00 | 0.00 | 0.00 | 61 | 999.2 |
| 20260506180804 | 54 | 327 | 5.2 | 7.0 | 0.00 | 0.00 | 0.00 | 60 | 999.3 |
| 20260506180404 | 54 | 318 | 4.3 | 6.1 | 0.00 | 0.00 | 0.00 | 58 | 999.1 |
| 20260506180205 | 54 | 323 | 4.3 | 6.1 | 0.00 | 0.00 | 0.00 | 58 | 999.0 |
| 20260506180005 | 54 | 318 | 4.3 | 6.1 | 0.00 | 0.00 | 0.00 | 58 | 999.0 |
| 20260506175804 | 54 | 319 | 4.3 | 6.1 | 0.00 | 0.00 | 0.00 | 58 | 999.0 |
| 20260506175605 | 55 | 317 | 5.2 | 9.6 | 0.00 | 0.00 | 0.00 | 59 | 998.9 |
| 20260506175404 | 55 | 322 | 5.2 | 9.6 | 0.00 | 0.00 | 0.00 | 59 | 998.8 |
| 20260506175204 | 55 | 317 | 6.1 | 9.6 | 0.00 | 0.00 | 0.00 | 58 | 998.9 |
| 20260506175004 | 54 | 329 | 6.1 | 9.6 | 0.00 | 0.00 | 0.00 | 58 | 998.8 |
| 20260506174804 | 55 | 325 | 7.0 | 9.6 | 0.00 | 0.00 | 0.00 | 57 | 998.6 |
| 20260506174604 | 55 | 329 | 7.0 | 9.6 | 0.00 | 0.00 | 0.00 | 57 | 998.7 |
| 20260506174205 | 55 | 328 | 6.1 | 9.6 | 0.00 | 0.00 | 0.00 | 56 | 998.6 |
| 20260506174004 | 55 | 323 | 6.1 | 9.6 | 0.00 | 0.00 | 0.00 | 56 | 998.5 |
| 20260506173804 | 55 | 340 | 5.2 | 7.8 | 0.00 | 0.00 | 0.00 | 56 | 998.8 |
| 20260506173404 | 55 | 346 | 5.2 | 6.1 | 0.00 | 0.00 | 0.00 | 57 | 998.8 |
| 20260506173004 | 55 | 339 | 5.2 | 7.0 | 0.00 | 0.00 | 0.00 | 56 | 998.7 |
| 20260506172804 | 55 | 344 | 5.2 | 7.8 | 0.00 | 0.00 | 0.00 | 56 | 998.6 |
| 20260506172604 | 55 | 347 | 6.1 | 8.7 | 0.00 | 0.00 | 0.00 | 56 | 998.8 |
| 20260506172404 | 55 | 338 | 6.1 | 8.7 | 0.00 | 0.00 | 0.00 | 56 | 998.7 |
| 20260506172004 | 54 | 345 | 7.0 | 8.7 | 0.00 | 0.00 | 0.00 | 55 | 998.7 |
| 20260506171805 | 55 | 345 | 7.0 | 8.7 | 0.00 | 0.00 | 0.00 | 54 | 998.5 |
| 20260506171604 | 55 | 343 | 6.1 | 10.4 | 0.00 | 0.00 | 0.00 | 55 | 998.7 |
| 20260506171404 | 55 | 342 | 6.1 | 10.4 | 0.00 | 0.00 | 0.00 | 55 | 998.6 |
| 20260506171205 | 55 | 336 | 6.1 | 10.4 | 0.00 | 0.00 | 0.00 | 55 | 998.7 |
| 20260506171004 | 55 | 335 | 6.1 | 10.4 | 0.00 | 0.00 | 0.00 | 55 | 998.6 |
| 20260506170804 | 55 | 335 | 7.0 | 10.4 | 0.00 | 0.00 | 0.00 | 55 | 998.7 |
| 20260506170404 | 55 | 330 | 6.1 | 9.6 | 0.00 | 0.00 | 0.00 | 55 | 998.6 |
| 20260506170204 | 55 | 332 | 7.0 | 9.6 | 0.00 | 0.00 | 0.00 | 55 | 998.6 |
| 20260506170005 | 55 | 333 | 6.1 | 9.6 | 0.00 | 0.00 | 0.00 | 55 | 998.5 |
| 20260506165804 | 55 | 326 | 5.2 | 7.8 | 0.00 | 0.00 | 0.00 | 55 | 998.6 |
| 20260506165604 | 55 | 327 | 4.3 | 7.8 | 0.00 | 0.00 | 0.00 | 55 | 998.6 |
| 20260506165405 | 55 | 326 | 4.3 | 7.8 | 0.00 | 0.00 | 0.00 | 55 | 998.6 |
| 20260506165204 | 55 | 328 | 4.3 | 7.8 | 0.00 | 0.00 | 0.00 | 55 | 998.7 |
| 20260506165005 | 55 | 334 | 5.2 | 7.8 | 0.00 | 0.00 | 0.00 | 55 | 998.6 |
| 20260506164804 | 55 | 333 | 5.2 | 7.8 | 0.00 | 0.00 | 0.00 | 55 | 998.6 |
| 20260506164204 | 55 | 338 | 4.3 | 7.8 | 0.00 | 0.00 | 0.00 | 55 | 998.6 |
| 20260506164005 | 55 | 331 | 4.3 | 7.0 | 0.00 | 0.00 | 0.00 | 55 | 998.6 |
| 20260506163804 | 55 | 333 | 4.3 | 7.0 | 0.00 | 0.00 | 0.00 | 55 | 998.7 |
| 20260506163604 | 55 | 340 | 5.2 | 7.0 | 0.00 | 0.00 | 0.00 | 54 | 998.6 |
| 20260506163404 | 55 | 340 | 4.3 | 7.0 | 0.00 | 0.00 | 0.00 | 54 | 998.7 |
| 20260506163204 | 55 | 344 | 4.3 | 7.0 | 0.00 | 0.00 | 0.00 | 54 | 998.7 |
| 20260506163004 | 55 | 349 | 3.5 | 6.1 | 0.00 | 0.00 | 0.00 | 54 | 998.7 |
| 20260506162804 | 55 | 7 | 3.5 | 6.1 | 0.00 | 0.00 | 0.00 | 55 | 998.7 |
| 20260506162605 | 55 | 351 | 2.6 | 6.1 | 0.00 | 0.00 | 0.00 | 55 | 998.8 |
| 20260506162204 | 55 | 336 | 3.5 | 4.3 | 0.00 | 0.00 | 0.00 | 55 | 998.6 |
| 20260506162005 | 55 | 327 | 3.5 | 6.1 | 0.00 | 0.00 | 0.00 | 55 | 998.7 |
| 20260506161804 | 55 | 327 | 4.3 | 7.0 | 0.00 | 0.00 | 0.00 | 55 | 998.7 |
| 20260506161604 | 55 | 325 | 5.2 | 7.0 | 0.00 | 0.00 | 0.00 | 55 | 998.7 |
| 20260506161404 | 55 | 320 | 5.2 | 7.0 | 0.00 | 0.00 | 0.00 | 54 | 998.5 |
| 20260506161204 | 55 | 329 | 6.1 | 7.0 | 0.00 | 0.00 | 0.00 | 54 | 998.7 |
| 20260506161004 | 55 | 330 | 6.1 | 7.0 | 0.00 | 0.00 | 0.00 | 54 | 998.7 |
| 20260506160804 | 55 | 327 | 5.2 | 7.0 | 0.00 | 0.00 | 0.00 | 54 | 998.7 |
| 20260506160605 | 55 | 331 | 6.1 | 7.8 | 0.00 | 0.00 | 0.00 | 53 | 998.6 |
| 20260506160404 | 55 | 334 | 5.2 | 7.8 | 0.00 | 0.00 | 0.00 | 53 | 998.7 |
| 20260506160204 | 55 | 330 | 5.2 | 7.8 | 0.00 | 0.00 | 0.00 | 53 | 998.7 |
| 20260506155804 | 55 | 337 | 4.3 | 7.8 | 0.00 | 0.00 | 0.00 | 53 | 998.7 |
| 20260506155604 | 55 | 4 | 3.5 | 7.0 | 0.00 | 0.00 | 0.00 | 53 | 998.6 |
| 20260506155404 | 55 | 325 | 3.5 | 7.8 | 0.00 | 0.00 | 0.00 | 53 | 998.7 |
| 20260506155204 | 55 | 328 | 4.3 | 7.8 | 0.00 | 0.00 | 0.00 | 54 | 998.8 |
| 20260506154804 | 55 | 336 | 4.3 | 7.8 | 0.00 | 0.00 | 0.00 | 53 | 998.6 |
| 20260506154604 | 55 | 321 | 4.3 | 7.8 | 0.00 | 0.00 | 0.00 | 53 | 998.6 |
| 20260506154404 | 55 | 358 | 3.5 | 7.0 | 0.00 | 0.00 | 0.00 | 54 | 998.7 |
| 20260506154204 | 55 | 354 | 3.5 | 4.3 | 0.00 | 0.00 | 0.00 | 54 | 998.7 |
| 20260506153804 | 55 | 346 | 3.5 | 7.0 | 0.00 | 0.00 | 0.00 | 53 | 998.7 |
| 20260506153204 | 55 | 348 | 3.5 | 7.0 | 0.00 | 0.00 | 0.00 | 52 | 998.8 |
| 20260506153004 | 55 | 340 | 3.5 | 7.0 | 0.00 | 0.00 | 0.00 | 51 | 998.9 |
| 20260506152604 | 55 | 327 | 3.5 | 7.0 | 0.00 | 0.00 | 0.00 | 51 | 998.9 |
| 20260506152404 | 55 | 335 | 3.5 | 7.0 | 0.00 | 0.00 | 0.00 | 50 | 998.8 |
| 20260506152204 | 55 | 337 | 3.5 | 7.0 | 0.00 | 0.00 | 0.00 | 50 | 998.8 |
| 20260506152005 | 56 | 353 | 3.5 | 7.0 | 0.00 | 0.00 | 0.00 | 50 | 998.8 |
| 20260506151804 | 56 | 353 | 3.5 | 7.0 | 0.00 | 0.00 | 0.00 | 50 | 998.8 |
| 20260506151604 | 56 | 346 | 3.5 | 7.0 | 0.00 | 0.00 | 0.00 | 51 | 998.7 |
| 20260506151404 | 56 | 333 | 3.5 | 6.1 | 0.00 | 0.00 | 0.00 | 51 | 998.6 |
| 20260506151204 | 56 | 345 | 4.3 | 6.1 | 0.00 | 0.00 | 0.00 | 50 | 998.8 |
| 20260506151004 | 56 | 334 | 5.2 | 7.8 | 0.00 | 0.00 | 0.00 | 50 | 998.7 |
| 20260506150804 | 56 | 334 | 5.2 | 7.8 | 0.00 | 0.00 | 0.00 | 50 | 998.9 |
| 20260506150604 | 56 | 337 | 5.2 | 7.8 | 0.00 | 0.00 | 0.00 | 50 | 998.6 |
| 20260506150404 | 56 | 337 | 5.2 | 7.8 | 0.00 | 0.00 | 0.00 | 50 | 998.8 |
| 20260506150204 | 56 | 319 | 4.3 | 7.8 | 0.00 | 0.00 | 0.00 | 50 | 998.7 |
| 20260506150005 | 56 | 314 | 3.5 | 6.1 | 0.00 | 0.00 | 0.00 | 51 | 998.7 |
| 20260506145204 | 56 | 333 | 4.3 | 7.0 | 0.00 | 0.00 | 0.00 | 52 | 998.7 |
| 20260506144804 | 56 | 335 | 6.1 | 7.8 | 0.00 | 0.00 | 0.00 | 51 | 998.7 |
| 20260506144604 | 56 | 338 | 6.1 | 7.8 | 0.00 | 0.00 | 0.00 | 51 | 998.7 |
| 20260506144404 | 56 | 344 | 7.0 | 7.8 | 0.00 | 0.00 | 0.00 | 50 | 998.7 |
| 20260506144204 | 57 | 343 | 6.1 | 7.8 | 0.00 | 0.00 | 0.00 | 50 | 998.7 |
| 20260506144004 | 57 | 331 | 6.1 | 7.8 | 0.00 | 0.00 | 0.00 | 50 | 998.7 |
| 20260506143804 | 57 | 333 | 5.2 | 7.8 | 0.00 | 0.00 | 0.00 | 51 | 998.8 |
| 20260506143604 | 57 | 330 | 5.2 | 7.8 | 0.00 | 0.00 | 0.00 | 52 | 998.6 |
| 20260506143404 | 57 | 320 | 5.2 | 7.8 | 0.00 | 0.00 | 0.00 | 52 | 998.7 |
| 20260506143204 | 57 | 324 | 6.1 | 7.8 | 0.00 | 0.00 | 0.00 | 51 | 998.6 |
| 20260506142804 | 57 | 324 | 6.1 | 7.8 | 0.00 | 0.00 | 0.00 | 51 | 998.6 |
| 20260506142604 | 57 | 318 | 6.1 | 7.8 | 0.00 | 0.00 | 0.00 | 51 | 998.6 |
| 20260506142404 | 57 | 321 | 6.1 | 7.8 | 0.00 | 0.00 | 0.00 | 52 | 998.7 |
| 20260506141804 | 57 | 354 | 6.1 | 8.7 | 0.00 | 0.00 | 0.00 | 52 | 998.6 |
| 20260506141404 | 57 | 350 | 6.1 | 8.7 | 0.00 | 0.00 | 0.00 | 53 | 998.5 |
| 20260506141204 | 57 | 345 | 6.1 | 8.7 | 0.00 | 0.00 | 0.00 | 54 | 998.6 |
| 20260506141004 | 56 | 340 | 5.2 | 7.0 | 0.00 | 0.00 | 0.00 | 54 | 998.5 |
| 20260506140604 | 56 | 344 | 5.2 | 8.7 | 0.00 | 0.00 | 0.00 | 54 | 998.6 |
| 20260506140204 | 56 | 343 | 5.2 | 8.7 | 0.00 | 0.00 | 0.00 | 55 | 998.7 |
| 20260506140005 | 56 | 347 | 6.1 | 8.7 | 0.00 | 0.00 | 0.00 | 54 | 998.6 |
| 20260506135804 | 56 | 340 | 7.0 | 8.7 | 0.00 | 0.00 | 0.00 | 54 | 998.9 |
| 20260506135604 | 56 | 340 | 7.0 | 8.7 | 0.00 | 0.00 | 0.00 | 55 | 998.8 |
| 20260506135404 | 56 | 345 | 7.8 | 9.6 | 0.00 | 0.00 | 0.00 | 54 | 998.8 |
| 20260506135204 | 56 | 339 | 7.0 | 9.6 | 0.00 | 0.00 | 0.00 | 53 | 998.9 |
| 20260506134804 | 57 | 345 | 6.1 | 9.6 | 0.00 | 0.00 | 0.00 | 53 | 998.9 |
| 20260506134604 | 57 | 347 | 6.1 | 9.6 | 0.00 | 0.00 | 0.00 | 54 | 999.0 |
| 20260506134404 | 57 | 352 | 6.1 | 9.6 | 0.00 | 0.00 | 0.00 | 56 | 998.9 |
| 20260506134204 | 57 | 351 | 6.1 | 7.8 | 0.00 | 0.00 | 0.00 | 57 | 998.7 |
| 20260506133804 | 57 | 325 | 7.0 | 9.6 | 0.00 | 0.00 | 0.00 | 57 | 998.7 |
| 20260506133604 | 57 | 321 | 7.0 | 9.6 | 0.00 | 0.00 | 0.00 | 59 | 998.8 |
| 20260506133204 | 56 | 334 | 7.8 | 9.6 | 0.00 | 0.00 | 0.00 | 57 | 998.6 |
| 20260506132604 | 56 | 347 | 7.0 | 9.6 | 0.00 | 0.00 | 0.00 | 56 | 998.8 |
| 20260506132404 | 57 | 333 | 7.0 | 9.6 | 0.00 | 0.00 | 0.00 | 57 | 998.9 |
| 20260506132204 | 57 | 332 | 7.0 | 9.6 | 0.00 | 0.00 | 0.00 | 57 | 998.8 |
| 20260506132005 | 56 | 332 | 7.0 | 9.6 | 0.00 | 0.00 | 0.00 | 57 | 998.7 |
| 20260506131804 | 56 | 340 | 7.0 | 9.6 | 0.00 | 0.00 | 0.00 | 58 | 998.8 |
| 20260506131603 | 56 | 335 | 7.0 | 9.6 | 0.00 | 0.00 | 0.00 | 59 | 998.8 |
| 20260506131404 | 56 | 341 | 7.0 | 9.6 | 0.00 | 0.00 | 0.00 | 58 | 998.8 |
| 20260506131204 | 56 | 333 | 7.0 | 9.6 | 0.00 | 0.00 | 0.00 | 58 | 998.7 |
| 20260506131004 | 56 | 325 | 7.0 | 9.6 | 0.00 | 0.00 | 0.00 | 57 | 998.8 |
| 20260506130804 | 56 | 306 | 6.1 | 9.6 | 0.00 | 0.00 | 0.00 | 58 | 998.8 |
| 20260506130604 | 56 | 297 | 5.2 | 8.7 | 0.00 | 0.00 | 0.00 | 59 | 998.8 |
| 20260506130404 | 56 | 305 | 6.1 | 8.7 | 0.00 | 0.00 | 0.00 | 60 | 998.8 |
| 20260506130204 | 56 | 320 | 7.0 | 9.6 | 0.00 | 0.00 | 0.00 | 60 | 998.7 |
| 20260506125604 | 55 | 337 | 6.1 | 9.6 | 0.00 | 0.00 | 0.00 | 58 | 998.7 |
| 20260506125403 | 56 | 340 | 6.1 | 9.6 | 0.00 | 0.00 | 0.00 | 60 | 998.6 |
| 20260506125004 | 55 | 349 | 6.1 | 12.2 | 0.00 | 0.00 | 0.00 | 60 | 998.6 |
| 20260506124804 | 55 | 347 | 6.1 | 12.2 | 0.00 | 0.00 | 0.00 | 60 | 998.7 |
| 20260506124604 | 55 | 343 | 6.1 | 12.2 | 0.00 | 0.00 | 0.00 | 60 | 998.7 |
| 20260506124204 | 55 | 327 | 6.1 | 12.2 | 0.00 | 0.00 | 0.00 | 60 | 998.7 |
| 20260506124004 | 55 | 313 | 5.2 | 7.8 | 0.00 | 0.00 | 0.00 | 61 | 998.9 |
| 20260506123804 | 54 | 330 | 5.2 | 7.0 | 0.00 | 0.00 | 0.00 | 62 | 998.8 |
| 20260506123604 | 54 | 342 | 6.1 | 7.8 | 0.00 | 0.00 | 0.00 | 66 | 998.8 |
| 20260506123404 | 54 | 331 | 6.1 | 8.7 | 0.00 | 0.00 | 0.00 | 66 | 998.7 |
| 20260506123204 | 54 | 338 | 7.0 | 8.7 | 0.00 | 0.00 | 0.00 | 66 | 998.8 |
| 20260506123004 | 53 | 339 | 7.0 | 8.7 | 0.00 | 0.00 | 0.00 | 66 | 998.8 |
| 20260506122804 | 53 | 338 | 7.8 | 8.7 | 0.00 | 0.00 | 0.00 | 66 | 998.7 |
| 20260506122604 | 53 | 345 | 7.8 | 11.3 | 0.00 | 0.00 | 0.00 | 66 | 998.7 |
| 20260506122204 | 53 | 345 | 8.7 | 11.3 | 0.00 | 0.00 | 0.00 | 66 | 998.6 |
| 20260506122004 | 53 | 349 | 8.7 | 11.3 | 0.00 | 0.00 | 0.00 | 65 | 998.9 |
| 20260506121804 | 54 | 348 | 8.7 | 11.3 | 0.00 | 0.00 | 0.00 | 64 | 998.8 |
| 20260506121604 | 54 | 335 | 7.8 | 11.3 | 0.00 | 0.00 | 0.00 | 64 | 998.8 |
| 20260506121404 | 54 | 341 | 7.0 | 9.6 | 0.00 | 0.00 | 0.00 | 64 | 998.6 |
| 20260506121204 | 54 | 342 | 6.1 | 9.6 | 0.00 | 0.00 | 0.00 | 64 | 998.8 |
| 20260506120804 | 54 | 342 | 6.1 | 8.7 | 0.00 | 0.00 | 0.00 | 64 | 998.8 |
| 20260506120604 | 54 | 353 | 6.1 | 9.6 | 0.00 | 0.00 | 0.00 | 65 | 998.6 |
| 20260506120404 | 54 | 346 | 7.0 | 9.6 | 0.00 | 0.00 | 0.00 | 65 | 998.7 |
| 20260506120004 | 54 | 336 | 7.8 | 9.6 | 0.00 | 0.00 | 0.00 | 65 | 998.8 |
| 20260506115804 | 53 | 340 | 7.8 | 9.6 | 0.00 | 0.00 | 0.00 | 65 | 998.7 |
| 20260506115604 | 53 | 340 | 7.8 | 10.4 | 0.00 | 0.00 | 0.00 | 65 | 998.8 |
| 20260506115404 | 53 | 343 | 7.8 | 10.4 | 0.00 | 0.00 | 0.00 | 65 | 998.8 |
| 20260506115204 | 54 | 347 | 8.7 | 10.4 | 0.00 | 0.00 | 0.00 | 65 | 998.8 |
| 20260506115004 | 54 | 352 | 7.8 | 10.4 | 0.00 | 0.00 | 0.00 | 65 | 999.0 |
| 20260506114804 | 54 | 350 | 7.8 | 10.4 | 0.00 | 0.00 | 0.00 | 65 | 998.7 |
| 20260506114604 | 54 | 355 | 7.0 | 10.4 | 0.00 | 0.00 | 0.00 | 65 | 998.8 |
| 20260506114404 | 54 | 352 | 7.0 | 8.7 | 0.00 | 0.00 | 0.00 | 64 | 998.6 |
| 20260506114203 | 54 | 347 | 7.8 | 9.6 | 0.00 | 0.00 | 0.00 | 64 | 998.6 |
| 20260506114005 | 54 | 342 | 7.8 | 9.6 | 0.00 | 0.00 | 0.00 | 63 | 998.7 |
| 20260506113804 | 54 | 342 | 7.8 | 9.6 | 0.00 | 0.00 | 0.00 | 60 | 998.7 |
| 20260506113604 | 55 | 339 | 7.8 | 9.6 | 0.00 | 0.00 | 0.00 | 60 | 998.8 |
| 20260506113004 | 55 | 347 | 7.0 | 9.6 | 0.00 | 0.00 | 0.00 | 60 | 998.7 |
| 20260506112804 | 55 | 353 | 7.0 | 9.6 | 0.00 | 0.00 | 0.00 | 60 | 998.8 |
| 20260506112604 | 55 | 356 | 7.0 | 9.6 | 0.00 | 0.00 | 0.00 | 60 | 998.7 |
| 20260506112203 | 55 | 1 | 7.0 | 9.6 | 0.00 | 0.00 | 0.00 | 61 | 998.6 |
| 20260506112004 | 54 | 353 | 7.8 | 10.4 | 0.00 | 0.00 | 0.00 | 61 | 998.8 |
| 20260506111804 | 54 | 345 | 8.7 | 13.0 | 0.00 | 0.00 | 0.00 | 64 | 998.8 |
| 20260506111604 | 54 | 335 | 8.7 | 13.0 | 0.00 | 0.00 | 0.00 | 63 | 998.7 |
| 20260506111404 | 54 | 330 | 8.7 | 13.0 | 0.00 | 0.00 | 0.00 | 63 | 998.7 |
| 20260506111004 | 54 | 323 | 8.7 | 13.0 | 0.00 | 0.00 | 0.00 | 63 | 998.8 |
| 20260506110804 | 54 | 322 | 8.7 | 13.0 | 0.00 | 0.00 | 0.00 | 60 | 998.8 |
| 20260506110604 | 54 | 327 | 8.7 | 10.4 | 0.00 | 0.00 | 0.00 | 63 | 998.8 |
| 20260506110404 | 54 | 334 | 8.7 | 12.2 | 0.00 | 0.00 | 0.00 | 63 | 998.9 |
| 20260506110004 | 54 | 334 | 9.6 | 12.2 | 0.00 | 0.00 | 0.00 | 63 | 998.7 |
| 20260506105804 | 54 | 339 | 8.7 | 12.2 | 0.00 | 0.00 | 0.00 | 60 | 998.7 |
| 20260506105204 | 55 | 351 | 7.0 | 9.6 | 0.00 | 0.00 | 0.00 | 61 | 998.6 |
| 20260506105003 | 55 | 356 | 7.0 | 9.6 | 0.00 | 0.00 | 0.00 | 61 | 998.6 |
| 20260506104804 | 55 | 355 | 6.1 | 8.7 | 0.00 | 0.00 | 0.00 | 62 | 998.8 |
| 20260506104604 | 55 | 342 | 7.0 | 9.6 | 0.00 | 0.00 | 0.00 | 62 | 998.7 |
| 20260506104404 | 54 | 344 | 7.8 | 9.6 | 0.00 | 0.00 | 0.00 | 66 | 998.8 |
| 20260506104204 | 54 | 342 | 7.8 | 11.3 | 0.00 | 0.00 | 0.00 | 66 | 998.7 |
| 20260506104004 | 54 | 339 | 8.7 | 11.3 | 0.00 | 0.00 | 0.00 | 66 | 998.8 |
| 20260506103804 | 54 | 342 | 8.7 | 11.3 | 0.00 | 0.00 | 0.00 | 65 | 998.6 |
| 20260506103604 | 53 | 348 | 8.7 | 11.3 | 0.00 | 0.00 | 0.00 | 65 | 998.7 |
| 20260506103404 | 53 | 351 | 8.7 | 11.3 | 0.00 | 0.00 | 0.00 | 65 | 998.7 |
| 20260506103204 | 53 | 355 | 8.7 | 11.3 | 0.00 | 0.00 | 0.00 | 65 | 998.6 |
| 20260506103004 | 53 | 355 | 7.8 | 10.4 | 0.00 | 0.00 | 0.00 | 65 | 998.6 |
| 20260506102804 | 54 | 351 | 7.0 | 9.6 | 0.00 | 0.00 | 0.00 | 66 | 998.5 |
| 20260506102604 | 54 | 343 | 7.0 | 8.7 | 0.00 | 0.00 | 0.00 | 66 | 998.5 |
| 20260506102404 | 54 | 333 | 7.0 | 8.7 | 0.00 | 0.00 | 0.00 | 66 | 998.6 |
| 20260506102204 | 54 | 329 | 7.0 | 10.4 | 0.00 | 0.00 | 0.00 | 66 | 998.6 |
| 20260506101804 | 54 | 333 | 8.7 | 10.4 | 0.00 | 0.00 | 0.00 | 67 | 998.6 |
| 20260506101604 | 53 | 333 | 9.6 | 10.4 | 0.00 | 0.00 | 0.00 | 66 | 998.4 |
| 20260506101404 | 53 | 331 | 9.6 | 10.4 | 0.00 | 0.00 | 0.00 | 66 | 998.6 |
| 20260506101204 | 53 | 329 | 8.7 | 10.4 | 0.00 | 0.00 | 0.00 | 65 | 998.7 |
| 20260506101004 | 53 | 325 | 7.8 | 10.4 | 0.00 | 0.00 | 0.00 | 65 | 998.7 |
| 20260506100804 | 53 | 325 | 7.8 | 9.6 | 0.00 | 0.00 | 0.00 | 65 | 998.6 |
| 20260506100604 | 53 | 330 | 7.0 | 8.7 | 0.00 | 0.00 | 0.00 | 64 | 998.7 |
| 20260506100204 | 54 | 331 | 7.0 | 9.6 | 0.00 | 0.00 | 0.00 | 64 | 998.6 |
| 20260506100004 | 54 | 336 | 7.0 | 9.6 | 0.00 | 0.00 | 0.00 | 64 | 998.6 |
| 20260506095804 | 54 | 338 | 7.8 | 9.6 | 0.00 | 0.00 | 0.00 | 64 | 998.6 |
| 20260506095604 | 54 | 334 | 7.8 | 9.6 | 0.00 | 0.00 | 0.00 | 64 | 998.6 |
| 20260506095404 | 54 | 337 | 7.8 | 9.6 | 0.00 | 0.00 | 0.00 | 64 | 998.7 |
| 20260506095204 | 54 | 340 | 7.8 | 9.6 | 0.00 | 0.00 | 0.00 | 65 | 998.6 |
| 20260506095004 | 53 | 341 | 7.8 | 9.6 | 0.00 | 0.00 | 0.00 | 65 | 998.8 |
| 20260506094803 | 53 | 343 | 7.0 | 9.6 | 0.00 | 0.00 | 0.00 | 64 | 998.6 |
| 20260506094604 | 53 | 348 | 6.1 | 9.6 | 0.00 | 0.00 | 0.00 | 64 | 998.6 |
| 20260506094404 | 53 | 346 | 6.1 | 9.6 | 0.00 | 0.00 | 0.00 | 65 | 998.8 |
| 20260506094204 | 53 | 340 | 6.1 | 9.6 | 0.00 | 0.00 | 0.00 | 65 | 998.7 |
| 20260506093804 | 53 | 343 | 6.1 | 8.7 | 0.00 | 0.00 | 0.00 | 66 | 998.6 |
| 20260506093604 | 52 | 340 | 7.0 | 8.7 | 0.00 | 0.00 | 0.00 | 65 | 998.6 |